This is the latest recevied weather packets stored in our database for station/object N3TJJ-11. If no packets are shown the sender has not sent any weather packets the latest 1 day(s).
| Time | Temp. | Humidity | Pressure | Rain* | Wind** | Luminosity | Snow |
|---|---|---|---|---|---|---|---|
| 1777991024 | 21.67° C | 53% | 1009.4 hPa | 0 mm | 4.47 m/s, 240° | - | - |
| 1777990425 | 21.11° C | 53% | 1009.2 hPa | 0 mm | 4.92 m/s, 236° | - | - |
| 1777990304 | 21.11° C | 51% | 1009.2 hPa | 0 mm | 4.47 m/s, 232° | - | - |
| 1777989826 | 21.11° C | 54% | 1009.2 hPa | 0 mm | 3.13 m/s, 248° | - | - |
| 1777989584 | 20.56° C | 55% | 1009.3 hPa | 0 mm | 3.13 m/s, 245° | - | - |
| 1777989225 | 20.56° C | 56% | 1009.4 hPa | 0 mm | 3.13 m/s, 263° | - | - |
| 1777988864 | 20° C | 55% | 1009.3 hPa | 0 mm | 3.58 m/s, 240° | - | - |
| 1777988625 | 20° C | 57% | 1009.4 hPa | 0 mm | 3.58 m/s, 225° | - | - |
| 1777988144 | 19.44° C | 58% | 1009.6 hPa | 0 mm | 4.02 m/s, 239° | - | - |
| 1777988026 | 19.44° C | 57% | 1009.6 hPa | 0 mm | 3.58 m/s, 219° | - | - |
| 1777987424 | 18.89° C | 59% | 1009.8 hPa | 0 mm | 4.02 m/s, 252° | - | - |
| 1777986825 | 18.33° C | 60% | 1009.9 hPa | 0 mm | 4.02 m/s, 223° | - | - |
| 1777986704 | 18.33° C | 61% | 1009.8 hPa | 0 mm | 4.02 m/s, 243° | - | - |
| 1777986226 | 17.78° C | 63% | 1009.9 hPa | 0 mm | 4.02 m/s, 238° | - | - |
| 1777985984 | 17.78° C | 63% | 1009.9 hPa | 0 mm | 4.47 m/s, 232° | - | - |
| 1777985625 | 16.67° C | 64% | 1009.8 hPa | 0 mm | 4.02 m/s, 222° | - | - |
| 1777985264 | 16.67° C | 66% | 1009.8 hPa | 0 mm | 4.02 m/s, 247° | - | - |
| 1777985025 | 16.11° C | 66% | 1010 hPa | 0 mm | 4.47 m/s, 242° | - | - |
| 1777984544 | 15.56° C | 67% | 1009.9 hPa | 0 mm | 4.47 m/s, 243° | - | - |
| 1777984428 | 15.56° C | 67% | 1009.9 hPa | 0 mm | 4.47 m/s, 236° | - | - |
| 1777983824 | 15° C | 69% | 1009.9 hPa | 0 mm | 4.02 m/s, 239° | - | - |
| 1777983225 | 15° C | 70% | 1009.6 hPa | 0 mm | 3.58 m/s, 234° | - | - |
| 1777983104 | 15° C | 70% | 1009.6 hPa | 0 mm | 3.58 m/s, 229° | - | - |
| 1777982634 | 14.44° C | 73% | 1009.6 hPa | 0 mm | 3.13 m/s, 213° | - | - |
| 1777982384 | 13.89° C | 73% | 1009.6 hPa | 0 mm | 3.13 m/s, 234° | - | - |
* Rain latest hour (hover to see other rain measurements)
** Current wind speed in m/s (hover to see current wind gust speed)